Theta_e
326 319 328 318 303 299 293 297 303 303 302 306 306 304 303 305 309 306 333 338 340 342 348 348 348 349 349 349 349 349 349 349 347 347 346 346 345 344 340 340 341 341 336 339 336 338 336 334 333
322 319 320 311 298 291 292 299 300 304 307 307 308 307 309 306 319 327 331 338 341 344 347 348 346 348 349 348 348 349 349 349 349 348 347 346 345 342 340 338 340 340 336 340 338 336 334 334 334
316 322 311 306 298 294 293 299 302 305 307 307 307 314 310 312 324 328 335 340 342 344 346 347 345 348 348 348 347 348 348 347 348 347 346 345 345 344 341 339 339 338 336 337 336 334 333 334 334
311 314 311 301 297 298 299 301 304 304 307 307 308 306 317 328 327 333 338 341 341 343 345 344 346 348 348 347 347 347 347 347 347 347 346 345 345 344 342 340 338 337 335 336 334 334 333 334 334
311 308 300 299 298 299 303 304 305 304 305 307 308 306 312 328 334 336 339 341 339 341 345 345 344 346 346 346 346 345 346 346 346 346 346 344 344 343 342 339 338 335 334 334 334 333 332 332 332
306 306 296 293 297 301 304 307 307 305 306 308 307 308 314 330 333 336 339 339 340 340 343 345 338 341 343 343 343 344 344 344 346 345 344 344 343 342 340 339 338 335 333 333 333 331 330 330 329
302 299 293 294 295 298 302 307 306 306 306 306 311 307 314 325 333 337 338 337 339 341 342 343 344 340 335 338 340 341 343 343 344 344 343 341 340 340 338 337 338 337 334 332 331 329 328 327 327
302 300 292 293 293 294 302 305 307 306 306 311 312 307 309 324 333 336 336 336 337 339 340 341 342 342 341 341 333 335 337 338 340 339 336 334 334 335 334 332 335 336 333 330 328 326 326 325 326
304 292 287 289 292 296 299 299 304 307 307 309 314 317 321 329 333 332 333 333 335 337 339 340 339 339 339 340 335 332 332 333 333 332 329 330 335 334 332 329 333 335 332 329 327 326 326 326 325
293 288 287 293 294 293 296 295 299 300 302 303 309 317 325 328 327 326 328 328 331 333 336 337 337 337 337 338 337 340 338 339 338 336 335 334 332 331 330 326 327 329 328 329 327 325 322 320 321
291 284 290 291 294 295 294 294 297 298 298 302 303 303 310 325 326 325 326 328 331 333 334 335 336 336 335 335 336 337 337 336 335 334 332 330 328 329 329 330 329 328 322 325 323 321 320 321 322
286 290 291 292 293 292 291 294 292 296 296 304 302 303 307 316 324 325 325 328 330 332 333 333 334 334 335 334 335 335 333 333 332 331 329 327 326 326 326 326 325 324 322 321 319 320 321 320 321
285 287 289 292 291 291 292 290 290 291 296 297 298 305 308 310 318 327 328 329 331 329 331 333 334 334 332 331 333 333 333 332 331 328 326 325 324 325 324 323 322 321 319 319 319 321 321 320 321
287 288 287 289 289 291 288 288 290 290 296 298 301 302 306 310 313 321 327 327 328 329 329 330 331 332 331 330 330 331 331 332 329 327 325 324 324 323 323 321 320 319 318 319 321 322 321 321 321
288 283 285 286 288 287 289 283 284 290 293 293 295 298 301 307 312 318 324 327 328 329 330 329 329 331 330 330 330 330 330 327 326 324 324 324 323 323 322 321 319 319 319 320 322 322 321 320 321
283 282 277 283 285 287 287 277 284 288 290 293 295 297 300 307 311 315 322 328 329 330 328 328 329 329 330 331 331 328 327 326 325 324 323 324 323 323 321 319 318 318 319 320 321 321 320 321 321
281 272 275 278 285 284 284 279 284 288 287 286 289 294 301 306 311 319 321 326 329 328 327 327 328 328 329 331 330 328 326 325 324 325 323 323 324 323 321 320 319 319 319 320 321 321 321 321 321
270 274 275 275 280 283 281 281 285 288 288 287 291 292 294 298 307 315 318 320 329 328 328 328 328 328 329 330 329 327 325 324 324 324 324 323 324 323 322 321 321 320 320 320 321 321 322 322 321
279 276 274 278 281 280 280 281 283 286 288 288 291 295 300 303 310 312 313 315 324 328 327 328 328 328 328 327 325 324 323 323 322 323 324 324 324 323 323 322 322 322 321 321 321 322 321 321 320
279 276 274 278 281 279 279 278 281 283 285 287 289 291 299 304 307 308 307 308 310 326 327 327 327 328 328 328 327 327 326 324 323 323 324 324 324 323 323 323 322 322 321 321 321 322 322 321 321
278 276 275 275 279 280 278 275 279 283 285 285 290 292 293 304 304 304 304 303 304 309 319 327 327 328 328 329 329 328 326 324 322 322 322 323 324 324 324 323 323 322 322 322 323 322 321 318 320
276 281 279 278 276 270 278 269 277 279 281 284 288 291 292 303 302 301 300 301 300 301 307 311 324 327 328 329 328 326 323 321 323 323 324 323 325 324 324 324 324 324 324 323 324 323 322 321 317
279 283 281 279 276 274 272 272 274 280 279 282 288 292 300 298 297 296 296 297 298 299 302 307 312 315 315 325 326 326 325 326 326 325 324 323 324 325 325 324 325 325 325 324 324 324 323 322 321
285 282 280 280 277 269 271 270 270 276 280 283 289 296 294 294 294 295 296 296 297 299 299 303 305 305 306 311 316 318 324 325 324 324 323 323 323 324 325 325 326 326 325 325 325 323 321 322 322
283 276 268 266 266 264 268 270 274 282 286 286 293 291 292 292 292 292 293 294 295 295 296 299 299 298 300 302 307 305 309 324 324 324 324 324 323 324 324 325 325 325 326 326 326 324 323 321 320
279 277 268 260 265 267 275 271 277 283 286 294 291 290 290 290 291 291 291 291 292 293 294 295 296 296 297 298 298 300 300 305 316 317 321 320 317 313 314 314 321 321 321 321 321 317 311 313 312
280 276 282 274 276 274 276 278 282 285 284 286 286 286 286 287 288 289 290 290 291 292 292 293 294 294 295 296 297 296 297 297 298 302 302 302 304 305 305 304 304 306 307 307 306 304 302 302 301
283 285 275 276 270 270 274 274 273 280 281 283 283 284 285 286 287 288 289 290 290 291 292 292 293 292 293 294 295 295 295 295 296 296 296 298 298 300 300 300 300 299 300 300 300 298 297 295 295
282 280 281 281 279 274 271 273 280 281 282 282 283 284 285 285 287 287 288 290 290 291 291 291 291 291 291 292 293 293 293 294 294 293 293 294 295 296 296 296 296 296 296 296 295 293 293 292 291
284 281 281 277 274 276 274 272 281 284 284 284 283 284 285 286 287 287 288 288 288 288 289 289 290 290 290 292 291 291 291 292 292 291 291 292 292 293 293 293 293 292 292 293 292 291 290 289 287
Wind_Speed
9 8 1 4 1 2 3 6 2 4 2 2 3 3 4 3 4 4 3 8 10 19 18 18 20 20 19 18 17 17 17 17 18 18 19 19 18 18 18 14 14 15 15 16 16 16 14 13 13
5 4 3 2 2 3 5 4 7 4 3 3 3 3 2 6 3 1 5 5 15 17 16 18 19 20 19 18 16 17 16 17 18 18 19 18 18 19 19 17 14 14 18 17 17 15 13 12 14
5 2 2 2 5 13 5 5 9 3 3 2 1 1 2 3 2 1 2 11 16 16 15 15 18 20 19 18 17 16 17 16 16 17 18 18 19 17 18 18 15 15 16 17 16 15 12 12 15
3 3 2 5 15 4 8 4 5 2 1 3 1 4 3 2 3 2 4 14 16 16 14 15 19 20 19 18 17 15 14 16 15 17 18 18 18 18 17 17 16 15 15 16 16 14 13 13 12
3 1 4 8 19 4 3 2 1 0 2 2 2 4 3 3 3 4 12 12 15 15 13 15 17 19 18 17 17 16 14 14 14 16 17 17 18 18 17 17 17 16 16 16 15 14 13 13 11
1 1 9 17 22 5 4 4 0 1 2 4 1 2 5 1 2 7 10 10 11 13 13 13 12 15 16 16 15 16 15 15 14 15 16 17 17 17 17 16 17 16 16 15 14 13 12 12 11
1 3 11 12 15 13 5 6 8 9 5 5 3 3 5 3 2 6 8 5 10 11 13 12 12 12 12 12 12 12 12 13 15 15 17 17 15 16 15 15 16 15 15 14 14 12 11 11 11
1 3 4 8 13 15 2 2 2 9 11 5 6 6 4 1 5 5 6 5 7 10 11 13 12 12 11 11 9 10 11 12 15 16 14 12 13 11 11 11 15 15 14 13 12 11 11 10 10
2 4 8 4 7 8 6 4 5 5 4 3 5 3 1 2 7 5 7 6 6 9 10 12 12 12 11 10 8 11 11 12 15 13 13 12 8 11 10 8 12 15 12 12 12 11 10 9 8
3 5 5 3 3 3 6 4 6 6 5 2 3 6 4 5 6 11 12 13 12 12 14 11 12 13 11 8 9 10 9 9 10 10 11 8 8 8 8 8 12 11 10 10 11 11 9 6 3
3 5 1 5 1 3 6 11 4 5 7 2 3 11 16 7 8 9 12 15 18 12 10 12 11 12 13 10 7 6 6 6 7 11 10 8 6 6 6 5 6 6 6 5 6 5 3 4 4
4 4 2 3 5 6 9 8 7 10 6 8 9 11 15 13 10 11 11 11 13 13 11 11 11 13 12 8 7 7 7 7 7 8 10 8 6 7 6 5 6 5 4 5 4 3 4 4 4
5 6 8 3 5 6 8 11 13 24 11 12 14 12 11 13 10 9 11 10 8 12 12 13 12 12 11 11 8 8 9 8 9 9 9 8 8 8 7 7 6 5 5 5 4 4 4 4 4
3 5 8 5 5 4 9 13 8 2 6 7 9 8 10 8 11 8 10 12 12 12 13 12 12 12 11 11 10 8 8 9 9 8 9 10 8 8 7 7 6 6 6 5 5 4 4 3 3
4 12 13 14 5 7 3 17 23 4 8 14 19 15 15 12 8 9 11 12 14 12 12 14 12 13 12 12 11 8 8 8 8 7 10 11 10 9 9 7 6 6 6 7 5 5 4 3 4
3 5 6 1 12 9 10 27 4 7 7 10 11 10 12 13 11 8 10 12 13 12 14 13 12 14 13 12 10 7 8 8 8 7 8 12 11 10 8 7 7 6 5 5 5 5 4 4 4
8 8 14 14 11 5 14 12 8 12 15 16 15 13 11 11 9 3 4 9 13 14 14 14 14 15 13 12 9 8 9 8 7 8 8 11 11 11 9 7 7 8 6 6 5 4 4 5 5
9 10 8 15 4 11 10 16 14 10 13 11 9 13 14 15 15 4 5 6 11 14 14 15 14 15 13 8 7 5 6 7 7 8 8 12 9 11 9 7 8 8 7 6 5 6 6 4 4
9 10 13 10 7 5 14 15 17 15 16 16 12 13 11 12 5 2 0 4 9 12 16 18 17 16 12 10 9 7 9 8 7 8 11 12 11 11 11 7 8 8 8 8 8 6 6 4 4
19 18 24 13 5 11 12 18 19 17 18 16 13 15 12 6 5 3 2 4 8 12 14 15 18 16 13 12 11 7 9 7 8 7 9 11 11 11 10 9 9 10 7 9 9 9 4 3 5
22 23 22 18 5 13 10 12 18 14 17 17 15 15 14 11 9 4 1 3 6 7 3 15 17 17 17 15 9 6 7 5 6 8 8 10 12 12 12 11 9 9 9 8 9 9 8 5 4
18 21 22 18 9 7 12 10 10 10 17 20 16 16 15 8 7 4 1 1 7 7 7 8 7 12 13 13 11 13 10 8 9 9 8 9 12 12 12 11 10 10 8 9 9 8 7 3 5
14 10 16 18 14 4 6 7 9 12 17 16 17 17 11 10 9 6 3 4 5 7 7 7 6 5 4 8 9 14 10 8 7 7 10 10 10 12 12 11 11 11 8 10 10 8 8 6 4
1 3 8 8 7 8 11 11 10 10 17 14 18 13 11 11 11 7 5 5 7 6 8 7 7 7 5 5 4 2 7 11 9 10 9 9 7 9 11 12 12 12 10 10 9 7 7 6 6
7 6 1 1 3 9 7 10 15 5 4 6 16 13 12 12 10 7 7 8 8 8 9 5 7 10 8 5 3 4 4 11 13 12 10 10 7 6 8 9 10 8 10 10 9 8 8 7 7
16 7 6 8 5 5 11 8 3 5 10 7 15 15 13 16 7 9 9 8 9 11 9 9 10 8 8 8 6 5 6 4 2 5 5 5 4 4 4 3 5 6 7 5 7 4 3 4 3
7 12 5 6 7 5 3 1 3 5 7 15 16 17 13 14 7 8 9 11 10 11 6 10 7 9 10 9 7 6 8 8 8 7 8 6 6 4 8 6 7 5 7 6 7 6 5 7 6
6 5 5 5 4 2 3 3 7 5 5 10 15 17 13 12 7 8 9 13 13 8 10 12 12 9 10 8 8 8 9 11 9 8 12 9 8 9 8 8 8 8 6 10 8 6 7 10 6
2 3 5 3 2 0 2 4 9 4 6 12 14 12 14 9 7 11 10 10 10 9 10 11 11 8 11 9 8 9 9 10 9 12 12 9 8 10 6 10 8 9 7 10 7 11 9 11 8
3 5 3 3 2 4 3 5 11 9 10 12 13 12 9 10 9 10 11 11 13 9 11 10 8 10 10 9 8 10 11 10 9 10 13 7 11 9 8 10 10 8 11 8 10 10 8 9 10
Wind_Direction
329 318 34 32 8 51 215 232 234 169 130 237 130 149 209 238 184 217 351 175 155 157 155 156 154 152 149 142 143 140 140 141 144 147 143 140 136 128 126 127 120 123 118 115 115 110 104 102 104
321 325 43 100 192 216 236 245 225 217 161 269 291 163 236 267 264 299 130 186 162 157 154 157 156 154 151 145 145 143 147 151 152 153 149 147 139 134 132 128 129 129 127 125 119 110 105 106 116
328 26 91 206 194 230 227 212 243 277 296 223 264 280 232 241 304 255 223 158 160 157 158 154 150 152 150 148 152 150 152 156 156 153 156 150 140 135 133 131 132 131 135 131 123 116 110 114 122
14 13 11 232 240 251 212 201 207 207 187 135 168 269 286 195 195 186 170 157 165 155 156 154 150 151 152 152 154 154 157 157 161 160 161 153 142 138 138 134 134 135 141 133 126 119 114 112 125
22 83 225 230 240 231 189 245 343 302 343 318 6 275 269 185 267 159 159 165 169 160 154 160 153 153 152 154 158 158 164 162 165 161 162 155 145 142 143 139 137 138 138 136 133 127 121 120 126
173 199 231 236 237 227 197 208 90 236 253 292 260 288 254 39 147 164 163 167 169 158 155 160 154 151 151 157 162 163 167 169 169 163 159 155 149 146 142 140 138 142 140 141 137 133 129 123 122
210 209 239 253 254 255 216 190 226 242 234 230 261 250 266 8 209 142 149 164 154 160 163 155 159 153 149 156 164 162 162 165 165 157 153 154 147 145 144 148 143 142 142 141 138 135 131 126 118
2 263 205 228 237 258 348 197 209 207 255 204 184 228 241 322 164 127 132 154 159 163 171 160 158 159 162 160 157 152 145 140 141 144 143 135 132 132 137 147 157 144 143 139 135 132 129 124 117
354 249 245 237 212 232 11 358 350 325 263 223 195 201 223 158 144 145 151 148 158 171 175 167 163 160 161 158 160 144 140 134 128 127 131 132 142 144 136 126 121 130 138 138 136 129 122 112 103
181 238 226 202 45 19 342 25 323 321 304 260 281 297 327 159 190 189 189 185 183 186 174 173 168 163 163 160 165 155 146 150 138 139 146 145 147 148 143 132 121 126 134 138 139 131 117 116 124
238 238 253 285 284 61 304 301 351 286 264 148 346 320 321 234 192 220 223 205 182 183 175 184 166 163 168 169 168 156 155 151 147 150 149 147 148 146 143 141 138 143 134 136 127 125 125 135 145
277 270 349 328 337 321 293 313 276 243 260 301 313 300 289 299 210 200 226 217 189 173 184 172 175 168 169 167 175 163 161 158 153 158 155 153 153 156 154 155 152 151 152 146 150 148 143 146 146
242 260 261 198 302 290 286 272 275 272 278 295 292 293 280 279 277 228 205 225 203 186 174 173 174 170 170 177 179 168 167 165 161 160 162 160 162 166 164 163 161 160 159 161 163 158 157 162 166
267 279 288 259 246 279 273 281 270 351 332 258 243 270 285 274 266 266 200 209 202 187 175 171 172 171 177 183 179 177 165 163 164 162 169 169 168 167 173 171 173 171 172 167 168 168 168 170 181
290 287 280 259 200 232 266 270 250 273 276 256 264 265 276 276 270 255 243 209 200 192 173 176 172 170 182 184 181 179 178 159 163 168 169 175 172 175 174 175 181 181 176 168 174 173 170 176 183
272 279 279 282 194 226 160 258 287 298 288 257 261 270 263 265 255 253 256 229 197 184 174 171 177 181 177 183 189 177 182 167 165 169 171 176 177 175 176 179 187 184 181 182 185 177 181 191 192
196 259 231 277 198 182 196 264 278 227 246 257 260 265 264 265 253 233 300 257 196 178 171 172 179 187 175 181 184 179 183 174 166 170 179 180 179 175 178 188 187 178 185 197 193 187 191 190 196
205 233 230 239 220 201 226 245 257 269 276 261 252 258 256 257 258 212 285 315 220 174 168 183 186 182 171 169 177 171 178 184 176 174 186 181 184 180 183 189 183 182 188 198 198 200 203 199 173
227 228 244 243 214 236 241 250 261 257 260 261 254 254 253 242 213 212 270 326 253 188 180 188 186 184 175 182 179 185 183 187 181 181 185 186 188 185 189 191 188 190 194 200 202 205 200 209 156
237 243 251 274 198 193 244 252 258 253 254 255 251 256 248 226 203 187 339 38 341 187 188 188 191 182 180 189 189 185 187 197 185 178 191 190 190 190 193 192 195 195 196 199 201 202 193 201 172
225 224 244 242 187 226 258 271 259 248 249 251 240 244 251 216 190 165 166 73 24 3 240 198 192 189 188 192 184 177 176 159 172 187 195 198 194 192 196 198 198 195 195 202 202 204 196 192 187
237 218 244 247 227 238 173 271 245 237 245 235 220 230 233 166 133 119 67 33 66 356 345 330 227 187 183 188 190 188 190 183 201 194 193 195 196 196 197 201 199 198 199 203 205 204 206 164 185
236 200 220 228 216 227 235 256 241 225 242 237 208 217 184 126 119 110 62 26 55 40 352 327 349 104 91 200 203 192 191 198 186 194 188 195 198 199 199 199 200 205 204 205 202 190 194 200 170
123 236 218 214 226 246 232 196 274 234 230 226 202 168 143 129 109 102 72 54 43 39 25 352 53 16 26 299 130 132 234 207 194 192 191 188 193 200 202 199 203 208 205 197 192 177 188 199 210
193 117 46 318 212 238 198 192 250 291 328 269 159 131 128 109 102 105 86 62 52 46 55 7 37 52 3 25 14 86 233 240 190 191 195 185 185 189 201 204 208 209 205 204 191 190 200 185 206
190 165 176 196 206 248 142 234 264 321 309 147 121 117 106 98 103 101 85 81 54 38 39 47 43 54 29 23 10 15 46 21 234 158 162 179 140 114 93 64 245 186 181 185 186 135 122 123 126
161 211 238 317 230 214 176 185 205 29 17 103 112 101 92 90 89 89 79 72 55 45 42 54 58 50 37 19 23 30 45 65 29 77 81 61 65 82 87 69 78 25 72 75 82 78 85 86 74
215 130 164 186 263 92 145 78 346 14 43 96 94 95 96 82 96 83 74 66 55 34 45 50 44 41 49 30 23 44 55 55 67 55 65 66 66 64 57 85 72 55 73 82 80 90 84 83 74
18 308 279 207 248 230 100 53 347 21 53 96 86 94 96 104 92 78 77 72 78 61 49 54 44 38 52 36 39 48 50 55 55 62 62 50 59 74 44 77 64 75 57 71 98 78 81 90 79
319 291 247 286 80 47 68 56 348 47 61 73 76 79 84 84 83 77 70 66 59 42 54 46 52 42 46 44 45 56 53 56 65 65 65 59 54 59 60 59 71 63 72 63 64 78 84 101 103